User: anonymous   Login
Location: Los Gatos B&B
(42.6926°N, 77.0646°W)
Time: 14:10:18
(UTC-04:00)
Language:

SL-16 R/B - Orbit

View from above orbital plane
View from above orbital plane
View from above satellite
View from above satellite

Ground track
Ground track

The orbit data is extracted from the following two-line orbital elements,

1 28353U 04021B   14297.45513108  .00000369  00000-0  21878-3 0  8680
2 28353 071.0013 305.7304 0006606 241.6262 281.1402 14.14092283535496
Epoch (UTC): 24 October 2014 10:55:23
Eccentricity: 0.0006606
inclination: 71.0013°
perigee height: 840 km
apogee height: 850 km
right ascension of ascending node: 305.7304°
argument of perigee: 241.6262°
revolutions per day: 14.14092283
mean anomaly at epoch: 281.1402°
orbit number at epoch: 53549

The dashed part of the orbit path shows where the satellite is in the earth's shadow,  

DLR